Location: Newark
(48.6461°N, 4.3644°W)
Time: 00:59:29
(UTC+00:00)

S-56A Canister/Altair - Pass Details

Date: 20 January 2020
Orbit: 633 x 2499 km, 38.9° (Epoch: 20 February)

Event Time Altitude Azimuth Distance (km) Brightness Sun altitude
Rises 21:20:11 0° 211° (SSW) 3,483 - -42.9°
Reaches altitude 10° 21:24:22 10° 184° (S) 2,266 - -43.5°
Maximum altitude 21:26:34 13° 158° (SSE) 1,972 - -43.9°
Drops below altitude 10° 21:28:36 10° 132° (SE) 2,077 - -44.2°
Sets 21:32:04 0° 102° (ESE) 2,920 - -44.7°
